Location: ???????
(60.4260°N, 46.9069°E)
Time: 09:23:57
(UTC+00:00)

CBERS-1 - Pass Details

Date: 30 March 2020
Orbit: 769 x 777 km, 98.6° (Epoch: 29 May)

Event Time Altitude Azimuth Distance (km) Brightness Sun altitude
Rises 00:22:44 0° 17° (NNE) 3,275 8.2 -14.4°
Reaches altitude 10° 00:25:07 10° 12° (NNE) 2,343 7.2 -14.1°
Maximum altitude 00:30:03 48° 300° (WNW) 1,016 4.4 -13.6°
Enters shadow 00:33:26 19° 234° (SW) 1,767 5.2 -13.3°
